Delta, CO

7:02 AM MDT on October 01, 2016 (GMT -0600)
Delta

Weather History for KAJZ - September, 2012

Change the Weather History Date:

Saturday, September 8, 2012

  Actual Average (KMTJ) Record (KMTJ)
Temperature  
Mean Temperature 68 °F 65 °F  
Max Temperature 87 °F 80 °F 87 °F (1998)
Min Temperature 50 °F 50 °F 41 °F (2001)
Degree Days  
Heating Degree Days 0 2  
Month to date heating degree days 10  
Since 1 July heating degree days 15  
Cooling Degree Days 4 2  
Month to date cooling degree days 20  
Year to date cooling degree days 625  
Growing Degree Days 18 (Base 50)    
Moisture  
Dew Point 29 °F    
Average Humidity 27    
Maximum Humidity 58    
Minimum Humidity 8    
Precipitation  
Precipitation 0.00 in 0.04 in 0.30 in (2002)
Month to date precipitation 0.28  
Year to date precipitation 7.61  
Sea Level Pressure  
Sea Level Pressure 30.28 in    
Wind  
Wind Speed 3 mph ()    
Max Wind Speed 14 mph    
Max Gust Speed -    
Visibility 10.0 miles    
Events      
T = Trace of Precipitation, MM = Missing Value Source: Averaged Metar Reports

Daily Weather History Graph

Daily Weather History Graph

Search for Another Location

Airport or City:

Trip Planner

Search our weather history database for the weather conditions in past years. The results will help you decide how hot, cold, wet, or windy it might be!

Date:

Astronomy

Sep. 08, 2012 Rise Set
Actual Time 6:48 AM MDT 7:30 PM MDT
Civil Twilight 6:21 AM MDT 7:57 PM MDT
Nautical Twilight 5:49 AM MDT 8:29 PM MDT
Astronomical Twilight 5:16 AM MDT 9:02 PM MDT
Moon No Moon Rise 2:27 PM MDT (9/8)
Length of Visible Light 13h 36m
Length of Day
12h 42m
Waning Gibbous, 48% of the Moon is Illuminated
Sep 8
Waning Gibbous
Sep 15
New
Sep 22
First Quarter
Sep 29
Full
Oct 8
Last Quarter

Hourly Weather History & Observations

Time (MDT) Temp. Dew Point Humidity Pressure Visibility Wind Dir Wind Speed Gust Speed Precip Events Conditions
12:15 AM 66.0 °F 30.9 °F 27% 30.27 in 10.0 mi Calm Calm - N/A   Unknown
12:55 AM 63.7 °F 32.0 °F 31% 30.27 in 10.0 mi Calm Calm - N/A   Unknown
1:15 AM 62.8 °F 31.8 °F 31% 30.27 in 10.0 mi Calm Calm - N/A   Unknown
1:55 AM 59.9 °F 32.7 °F 36% 30.28 in 10.0 mi SSE 3.5 mph - N/A   Unknown
2:15 AM 57.9 °F 33.6 °F 40% 30.28 in 10.0 mi ENE 3.5 mph - N/A   Unknown
2:35 AM 58.1 °F 36.1 °F 44% 30.28 in 10.0 mi NE 3.5 mph - N/A   Unknown
2:55 AM 57.0 °F 36.0 °F 45% 30.28 in 10.0 mi NNE 4.6 mph - N/A   Unknown
3:15 AM 55.0 °F 36.0 °F 49% 30.28 in 10.0 mi NNE 3.5 mph - N/A   Unknown
3:35 AM 55.2 °F 35.1 °F 47% 30.30 in 10.0 mi East 5.8 mph - N/A   Unknown
3:55 AM 55.4 °F 34.9 °F 46% 30.30 in 10.0 mi NE 6.9 mph - N/A   Unknown
4:15 AM 54.7 °F 35.8 °F 49% 30.30 in 10.0 mi NNE 3.5 mph - N/A   Unknown
4:35 AM 52.5 °F 31.5 °F 45% 30.31 in 10.0 mi Calm Calm - N/A   Unknown
4:55 AM 53.2 °F 31.1 °F 43% 30.31 in 10.0 mi Calm Calm - N/A   Unknown
5:15 AM 52.2 °F 30.9 °F 44% 30.31 in 10.0 mi South 3.5 mph - N/A   Unknown
5:35 AM 51.3 °F 32.7 °F 49% 30.32 in 10.0 mi Calm Calm - N/A   Unknown
5:55 AM 52.0 °F 37.4 °F 58% 30.32 in 10.0 mi Calm Calm - N/A   Unknown
6:15 AM 50.0 °F 33.6 °F 53% 30.33 in 10.0 mi Calm Calm - N/A   Unknown
6:35 AM 51.8 °F 33.8 °F 50% 30.34 in 10.0 mi Calm Calm - N/A   Unknown
6:55 AM 50.9 °F 33.8 °F 52% 30.34 in 10.0 mi Calm Calm - N/A   Unknown
7:15 AM 51.4 °F 33.8 °F 51% 30.35 in 10.0 mi Calm Calm - N/A   Unknown
7:35 AM 53.6 °F 35.2 °F 50% 30.36 in 10.0 mi Calm Calm - N/A   Unknown
7:55 AM 54.1 °F 32.0 °F 43% 30.36 in 10.0 mi Calm Calm - N/A   Unknown
8:15 AM 57.0 °F 32.4 °F 39% 30.36 in 10.0 mi East 4.6 mph - N/A   Unknown
8:35 AM 57.2 °F 34.2 °F 42% 30.37 in 10.0 mi East 4.6 mph - N/A   Unknown
8:55 AM 58.5 °F 36.0 °F 43% 30.37 in 10.0 mi NE 4.6 mph - N/A   Unknown
9:15 AM 61.2 °F 36.0 °F 39% 30.37 in 10.0 mi NE 3.5 mph - N/A   Unknown
9:35 AM 64.8 °F 34.2 °F 32% 30.37 in 10.0 mi Calm Calm - N/A   Unknown
9:55 AM 66.7 °F 33.3 °F 29% 30.36 in 10.0 mi Calm Calm - N/A   Unknown
10:35 AM 69.4 °F 34.3 °F 27% 30.36 in 10.0 mi West 3.5 mph - N/A   Unknown
10:55 AM 70.9 °F 35.1 °F 27% 30.36 in 10.0 mi Calm Calm - N/A   Unknown
11:15 AM 72.7 °F 34.2 °F 24% 30.34 in 10.0 mi SW 6.9 mph - N/A   Unknown
11:35 AM 74.3 °F 33.3 °F 22% 30.34 in 10.0 mi SW 3.5 mph - N/A   Unknown
11:55 AM 76.3 °F 33.6 °F 21% 30.33 in 10.0 mi SSW 8.1 mph - N/A   Unknown
12:15 PM 78.1 °F 33.4 °F 20% 30.32 in 10.0 mi South 6.9 mph - N/A   Unknown
12:35 PM 79.0 °F 33.3 °F 19% 30.31 in 10.0 mi SSW 6.9 mph - N/A   Unknown
12:55 PM 80.2 °F 31.6 °F 17% 30.30 in 10.0 mi South 3.5 mph - N/A   Unknown
1:15 PM 81.7 °F 25.0 °F 12% 30.29 in 10.0 mi North 5.8 mph - N/A   Unknown
1:35 PM 82.4 °F 25.9 °F 13% 30.28 in 10.0 mi Calm Calm - N/A   Unknown
1:55 PM 83.8 °F 24.6 °F 11% 30.27 in 10.0 mi SSW 4.6 mph - N/A   Unknown
2:15 PM 85.6 °F 23.9 °F 10% 30.26 in 10.0 mi South 6.9 mph - N/A   Unknown
2:35 PM 85.5 °F 22.6 °F 10% 30.25 in 10.0 mi SSW 5.8 mph - N/A   Unknown
2:55 PM 84.7 °F 21.7 °F 10% 30.23 in 10.0 mi South 4.6 mph - N/A   Unknown
3:15 PM 85.5 °F 21.9 °F 10% 30.23 in 10.0 mi SSW 6.9 mph - N/A   Unknown
3:35 PM 85.1 °F 20.3 °F 9% 30.22 in 10.0 mi ENE 3.5 mph - N/A   Unknown
3:55 PM 86.0 °F 20.3 °F 9% 30.21 in 10.0 mi ESE 3.5 mph - N/A   Unknown
4:15 PM 87.3 °F 21.7 °F 9% 30.21 in 10.0 mi SW 5.8 mph - N/A   Unknown
4:35 PM 86.5 °F 21.9 °F 9% 30.19 in 10.0 mi WSW 13.8 mph - N/A   Unknown
4:55 PM 86.9 °F 20.8 °F 9% 30.19 in 10.0 mi Calm Calm - N/A   Unknown
5:15 PM 86.4 °F 19.9 °F 9% 30.19 in 10.0 mi WSW 10.4 mph - N/A   Unknown
5:35 PM 86.4 °F 18.9 °F 8% 30.19 in 10.0 mi WSW 6.9 mph - N/A   Unknown
5:55 PM 86.0 °F 18.0 °F 8% 30.19 in 10.0 mi SW 6.9 mph - N/A   Unknown
6:15 PM 86.0 °F 18.1 °F 8% 30.19 in 10.0 mi SSW 9.2 mph - N/A   Unknown
6:35 PM 85.6 °F 18.5 °F 8% 30.18 in 10.0 mi WSW 9.2 mph - N/A   Unknown
6:55 PM 84.4 °F 18.7 °F 9% 30.18 in 10.0 mi WSW 8.1 mph - N/A   Unknown
7:15 PM 83.3 °F 19.2 °F 9% 30.18 in 10.0 mi WSW 5.8 mph - N/A   Unknown
7:35 PM 81.5 °F 22.3 °F 11% 30.18 in 10.0 mi West 5.8 mph - N/A   Unknown
7:55 PM 80.8 °F 22.5 °F 12% 30.19 in 10.0 mi West 5.8 mph - N/A   Unknown
8:15 PM 79.7 °F 22.1 °F 12% 30.19 in 10.0 mi WNW 3.5 mph - N/A   Unknown
8:35 PM 73.0 °F 27.7 °F 19% 30.20 in 10.0 mi NNE 6.9 mph - N/A   Unknown
8:55 PM 70.9 °F 28.8 °F 21% 30.20 in 10.0 mi NNE 5.8 mph - N/A   Unknown
9:35 PM 70.0 °F 25.2 °F 19% 30.22 in 10.0 mi Calm Calm - N/A   Unknown
10:15 PM 64.9 °F 31.6 °F 29% 30.24 in 10.0 mi Calm Calm - N/A   Unknown
10:35 PM 64.2 °F 31.8 °F 30% 30.25 in 10.0 mi ENE 4.6 mph - N/A   Unknown
10:55 PM 62.4 °F 32.2 °F 32% 30.25 in 10.0 mi NE 3.5 mph - N/A   Unknown
11:15 PM 62.1 °F 30.4 °F 30% 30.25 in 10.0 mi ENE 5.8 mph - N/A   Unknown
11:35 PM 63.1 °F 29.3 °F 28% 30.26 in 10.0 mi ENE 5.8 mph - N/A   Unknown
11:55 PM 62.4 °F 29.5 °F 29% 30.26 in 10.0 mi ENE 3.5 mph - N/A   Unknown